Regional Weather Roundup
Issued by NWS

Home | Current Version | Previous Version | Text Only | Print | Product List | Glossary On
Versions: 1 2 3 4 5 6 7 8 9 10 11 12 13 14 15 16 17 18 19 20 21 22 23 24 25 26 27 28 29 30 31 32 33 34 35 36 37 38 39 40 41 42 43 44 45 46 47 48 49 50
000
ASUS44 KFWD 280101
RWRTX
NORTH TEXAS HOURLY WEATHER ROUNDUP
NATIONAL WEATHER SERVICE FORT WORTH TX
800 PM CDT FRI MAY 27 2016

NOTE: "FAIR" INDICATES FEW OR NO CLOUDS BELOW 12,000 FEET WITH NO
SIGNIFICANT WEATHER AND/OR OBSTRUCTIONS TO VISIBILITY.

TXZ118-119-280200-
DALLAS/FORT WORTH METROPLEX

CITY           SKY/WX    TMP DP  RH WIND       PRES   REMARKS
DFW AIRPORT    CLOUDY    75  60  59 SE15      29.73R
DALLAS LOVE    CLOUDY    74  62  66 SE15      29.74R
FTW MEACHAM    CLEAR     77  60  55 SE14      29.72R
DAL-EXECUTIVE  CLOUDY    71  62  73 S7        29.74R
FTW-ALLIANCE   PTCLDY    74  60  61 S9        29.73R
FTW-NAS-JRB    PTCLDY    77  58  51 SE14      29.73R
ARLINGTON      CLEAR     77  62  59 SE12      29.74R
GRAND PRAIRIE  CLEAR     73  63  68 SE9       29.75R
MESQUITE       CLEAR     72  64  78 SE8       29.74F
LANCASTER      CLOUDY    71  62  74 S7        29.75S
$$

TXZ091>094-102>105-117-120-121-131>134-280200-
NORTH CENTRAL TEXAS

CITY           SKY/WX    TMP DP  RH WIND       PRES   REMARKS
DECATUR        CLEAR     76  63  62 S13G20    29.73R
DENTON         PTCLDY    75  62  64 S13       29.73R
MCKINNEY       CLOUDY    72  64  76 S12       29.74R
ROCKWALL       CLOUDY    71  64  80 S10       29.74S
TERRELL        CLOUDY    70  64  81 S12       29.75F
WAXAHACHIE     CLOUDY    71  64  80 SE9       29.76S
$$

TXZ083>090-098>101-113>116-127>130-139>142-154-155-280200-
WESTERN NORTH TEXAS

CITY           SKY/WX    TMP DP  RH WIND       PRES   REMARKS
WICHITA FALLS  CLEAR     79  66  64 S16       29.67R
WF-KICKAPOO    CLEAR     82  67  60 S17       29.68R
VERNON         CLEAR     85  47  26 E3        29.67R
ABILENE        CLEAR     79  54  41 S8        29.72R
MINERAL WELLS  CLEAR     75  65  70 SE12      29.72R
STEPHENVILLE   CLEAR     75  64  67 SE5       29.78R
COMANCHE       CLEAR     75  67  77 SE10G16   29.75S
BROWNWOOD      CLEAR     75  66  73 SE10      29.75R
COLEMAN        CLEAR     77  66  68 SE12      29.75R
$$

TXZ143>147-156>162-174-175-280200-
CENTRAL TEXAS

CITY           SKY/WX    TMP DP  RH WIND       PRES   REMARKS
WACO           CLEAR     72  64  76 SE10      29.76R
WACO-MCGREGOR  CLEAR    N/A N/A N/A SE8         N/A  THUNDER
HILLSBORO      CLEAR     71  64  79 SE9       29.76R
CORSICANA      CLOUDY    70  64  81 S9        29.78R
MEXIA          CLOUDY    67  66  96 SE7       29.77R
HEARNE         CLOUDY    68  66  93 CALM      29.76S
TEMPLE         CLEAR     71  66  84 E9        29.78R
KILLEEN        CLEAR     71  65  81 E10       29.76R
KILLEEN-SKYLRK CLEAR     72  66  81 SE6       29.77R
FORT HOOD      CLEAR     71  65  81 SE8       29.75R
HAMILTON       CLEAR     74  66  74 SE9       29.78R
$$

TXZ095>097-106>112-122>126-135>138-148>153-164>167-280200-
EAST TEXAS

CITY           SKY/WX    TMP DP  RH WIND       PRES   REMARKS
PARIS          CLOUDY    66  57  72 SE7       29.75S
SULPHUR SPRNGS CLOUDY    68  65  89 S5        29.77F
MINEOLA        CLOUDY    66  64  94 CALM      29.77R
TYLER          CLOUDY    68  64  87 S10       29.77R
LONGVIEW       MOCLDY    67  65  93 S13G18    29.76R
PALESTINE      CLOUDY    68  66  94 SE6       29.78R
JACKSONVILLE   CLOUDY    67  66  96 S14G22    29.79R
NACOGDOCHES    CLOUDY    66  64  94 SE9G21    29.77R
LUFKIN         CLOUDY    67  65  93 S12       29.79S
$$

SUPPLEMENTAL OBSERVATIONS (CENTRAL)

CITY           SKY/WX    TMP DP  RH WIND       PRES   REMARKS
$$

SUPPLEMENTAL OBSERVATIONS (WEST)

CITY           SKY/WX    TMP DP  RH WIND       PRES   REMARKS
$$

SUPPLEMENTAL OBSERVATIONS (EAST)

CITY           SKY/WX    TMP DP  RH WIND       PRES   REMARKS
$$

SUPPLEMENTAL OBSERVATIONS ARE A COLLECTION OF AUTOMATED INSTRUMENTS
THAT ARE MAINTAINED BY A VARIETY OF FEDERAL AND STATE AGENCIES.
CERTAIN ELEMENTS...SUCH AS HUMIDITY VALUES AND SUSTAINED WIND
SPEEDS...MAY BE APPROXIMATED.





USA.gov is the U.S. government's official web portal to all federal, state and local government web resources and services.